Location: Lac Echo
(45.9375°N, 75.4580°W)
Time: 17:23:33
(UTC-04:00)

Amateur Radio Satellites - All Passes

Search period start: 17 April 2014 16:53
Search period end: 18 April 2014 16:53
Location: Lac Echo, 45.9375°N, 75.4580°W

Satellite Date Start Highest point End Downlink Frequencies (MHz)
Time Altitude Azimuth
Hamsat 17 Apr 16:55:53 16:57:08 11° 59° (ENE) 16:58:24 145.90 MHz
AO-7 17 Apr 16:58:24 17:06:35 64° 256° (WSW) 17:14:50 29.400 - 29.500 MHz
TMSAT-1 17 Apr 17:07:31 17:10:00 13° 273° (W) 17:12:29 436.925 FM
ISS 17 Apr 17:25:51 17:29:13 90° 324° (NW) 17:32:36 145.800 FM
Uosat F 17 Apr 17:33:47 17:37:02 17° 269° (W) 17:40:17 435.120 FM
SO-50 17 Apr 17:38:58 17:43:13 41° 314° (NW) 17:47:32 436.795 FM
SO-67 17 Apr 18:12:25 18:13:19 11° 62° (ENE) 18:14:12 435.3500 MHz FM
Hamsat 17 Apr 18:28:16 18:32:28 86° 257° (WSW) 18:36:44 145.90 MHz
JAS-1B 17 Apr 18:30:11 18:31:29 10° 275° (W) 18:32:46 435.800 - 435.900 CW/SSB
RS-15 17 Apr 18:33:14 18:41:56 29° 256° (WSW) 18:50:50 29.354 - 29.394 USB, Beacon 29.352 USB
UOSAT-12 17 Apr 18:33:27 18:37:52 52° 121° (ESE) 18:42:25 437.025 FM, 437.400 FM
JAS-2 17 Apr 18:46:29 18:52:08 52° 70° (ENE) 18:57:19 435.800 - 435.900 CW/SSB, 435.910 FM
Saudisat 1A 17 Apr 18:55:31 18:58:42 19° 34° (NE) 19:01:51 436.775 MHz
AO-7 17 Apr 18:57:56 19:01:02 12° 276° (W) 19:04:08 29.400 - 29.500 MHz
ISS 17 Apr 19:03:11 19:06:16 32° 351° (N) 19:09:21 145.800 FM
STRAND 1 17 Apr 19:08:32 19:13:04 32° 96° (E) 19:17:35 ?
SO-50 17 Apr 19:23:28 19:25:02 12° 337° (NNW) 19:26:37 436.795 FM
SO-67 17 Apr 19:42:32 19:45:59 60° 260° (W) 19:49:28 435.3500 MHz FM
HO-68 17 Apr 19:54:11 20:00:10 30° 57° (ENE) 20:06:11 435.675 MHz FM
UOSAT-12 17 Apr 20:14:22 20:18:18 27° 321° (NW) 20:22:19 437.025 FM, 437.400 FM
JAS-2 17 Apr 20:32:55 20:37:31 23° 266° (W) 20:41:50 435.800 - 435.900 CW/SSB, 435.910 FM
Saudisat 1A 17 Apr 20:34:27 20:38:53 84° 235° (SW) 20:43:16 436.775 MHz
ISS 17 Apr 20:40:27 20:43:34 34° 11° (NNE) 20:46:42 145.800 FM
STRAND 1 17 Apr 20:47:40 20:52:18 36° 294° (WNW) 20:56:54 ?
FUNcube-1 17 Apr 21:19:57 21:21:50 13° 60° (ENE) 21:23:43 145.950 - 145.970 MHz USB
Oscar 11 17 Apr 21:33:05 21:37:14 50° 72° (ENE) 21:41:26 145.825 FM, Beacon 2401.500 USB
HO-68 17 Apr 21:40:22 21:47:25 64° 257° (WSW) 21:54:33 435.675 MHz FM
MaSat-1 17 Apr 22:06:36 22:09:13 30° 114° (ESE) 22:11:35 437.345 MHz
Saudisat 1A 17 Apr 22:17:05 22:17:44 10° 253° (WSW) 22:18:23 436.775 MHz
ISS 17 Apr 22:17:11 22:20:33 75° 211° (SSW) 22:23:54 145.800 FM
SO-50 17 Apr 22:48:11 22:50:35 14° 27° (NNE) 22:53:01 436.795 FM
FUNcube-1 17 Apr 22:53:31 22:57:44 72° 258° (WSW) 23:01:55 145.950 - 145.970 MHz USB
Oscar 11 17 Apr 23:10:54 23:13:44 17° 269° (W) 23:16:35 145.825 FM, Beacon 2401.500 USB
HO-68 17 Apr 23:34:46 23:36:32 11° 276° (W) 23:38:18 435.675 MHz FM
MaSat-1 17 Apr 23:46:39 23:47:43 12° 309° (NW) 23:48:46 437.345 MHz
ISS 17 Apr 23:55:20 23:56:48 12° 228° (SW) 23:58:15 145.800 FM
SO-50 18 Apr 00:27:37 00:32:11 54° 49° (NE) 00:36:47 436.795 FM
PCSat 18 Apr 00:28:02 00:32:05 22° 107° (ESE) 00:36:09 145.825 MHz
UOSAT-12 18 Apr 01:21:15 01:24:41 20° 34° (NNE) 01:28:07 437.025 FM, 437.400 FM
Sapphire 18 Apr 01:24:38 01:29:56 59° 117° (ESE) 01:35:15 437.095 MHz 1200 baud AX-25 AFSK
Oscar 19 18 Apr 01:47:03 01:51:06 22° 92° (E) 01:55:08 437.125 CW, 437.150 USB
Oscar 16 18 Apr 01:54:44 01:59:11 28° 94° (E) 02:03:36 437.025 USB, Beacon 2401.1428
KITSAT 1 18 Apr 01:57:24 02:01:52 16° 99° (E) 02:06:20 435.175 FM
AO-Echo 18 Apr 02:04:44 02:06:43 12° 87° (E) 02:08:41 ?
SO-50 18 Apr 02:08:52 02:12:26 22° 247° (WSW) 02:16:03 436.795 FM
PCSat 18 Apr 02:09:41 02:15:02 63° 306° (NW) 02:20:27 145.825 MHz
OPAL 18 Apr 02:12:44 02:17:34 50° 67° (ENE) 02:22:31 ?
Uribyol 2 18 Apr 02:26:44 02:31:12 29° 95° (E) 02:35:38 436.500 FM
Gurwin Techsat 1B 18 Apr 02:49:44 02:52:42 15° 88° (E) 02:55:39 435.225 FM
UOSAT-12 18 Apr 03:00:45 03:05:31 89° 56° (NE) 03:10:13 437.025 FM, 437.400 FM
AO-27 18 Apr 03:05:38 03:10:47 60° 102° (ESE) 03:15:53 436.795 MHz FM
Sapphire 18 Apr 03:09:05 03:13:43 28° 317° (NW) 03:18:23 437.095 MHz 1200 baud AX-25 AFSK
Oscar 10/S400 18 Apr 03:15:20 03:35:39 31° 132° (SE) 05:04:30 145.825 - 145.975 CW/USB, Beacon 145.810 USB
ITAMSAT 1 18 Apr 03:16:47 03:21:59 74° 103° (ESE) 03:27:09 435.822 SSB
Oscar 19 18 Apr 03:25:42 03:30:45 52° 290° (WNW) 03:35:46 437.125 CW, 437.150 USB
Oscar 16 18 Apr 03:33:48 03:38:41 42° 292° (WNW) 03:43:32 437.025 USB, Beacon 2401.1428
TMSAT-1 18 Apr 03:37:52 03:42:27 29° 94° (E) 03:46:59 436.925 FM
AO-Echo 18 Apr 03:41:19 03:46:10 79° 286° (WNW) 03:50:53 ?
KITSAT 1 18 Apr 03:47:49 03:55:53 74° 119° (ESE) 04:04:00 435.175 FM
OPAL 18 Apr 03:52:49 03:56:45 23° 265° (W) 04:00:44 ?
PCSat 18 Apr 03:56:17 03:59:35 16° 328° (NNW) 04:02:54 145.825 MHz
Uosat F 18 Apr 03:59:21 04:02:27 16° 90° (E) 04:05:32 435.120 FM
Uribyol 2 18 Apr 04:05:58 04:10:47 41° 293° (WNW) 04:15:36 436.500 FM
JAS-1B 18 Apr 04:14:32 04:19:25 29° 94° (E) 04:24:21 435.800 - 435.900 CW/SSB
Gurwin Techsat 1B 18 Apr 04:27:58 04:33:18 79° 286° (WNW) 04:38:36 435.225 FM
UOSAT-12 18 Apr 04:42:54 04:44:58 13° 252° (WSW) 04:47:01 437.025 FM, 437.400 FM
AO-27 18 Apr 04:46:04 04:49:52 21° 300° (WNW) 04:53:40 436.795 MHz FM
AO-7 18 Apr 04:57:10 05:04:50 39° 98° (E) 05:12:28 29.400 - 29.500 MHz
ITAMSAT 1 18 Apr 04:57:34 05:00:54 18° 302° (WNW) 05:04:14 435.822 SSB
TMSAT-1 18 Apr 05:17:32 05:22:30 42° 292° (WNW) 05:27:26 436.925 FM
AO-Echo 18 Apr 05:22:34 05:24:06 11° 305° (NW) 05:25:38 ?
Uosat F 18 Apr 05:36:45 05:41:44 67° 288° (WNW) 05:46:41 435.120 FM
KITSAT 1 18 Apr 05:44:39 05:51:59 36° 323° (NW) 05:59:22 435.175 FM
JAS-1B 18 Apr 06:05:00 06:10:21 42° 294° (WNW) 06:15:42 435.800 - 435.900 CW/SSB
Gurwin Techsat 1B 18 Apr 06:10:00 06:12:25 13° 305° (NW) 06:14:51 435.225 FM
Hamsat 18 Apr 06:12:59 06:15:31 15° 90° (E) 06:18:04 145.90 MHz
STRAND 1 18 Apr 06:26:45 06:31:46 59° 71° (ENE) 06:36:49 ?
MaSat-1 18 Apr 06:27:58 06:29:43 15° 53° (NE) 06:31:36 437.345 MHz
RS-15 18 Apr 06:46:33 06:56:47 42° 110° (ESE) 07:06:43 29.354 - 29.394 USB, Beacon 29.352 USB
AO-7 18 Apr 06:49:52 06:57:52 54° 298° (WNW) 07:05:52 29.400 - 29.500 MHz
Uosat F 18 Apr 07:18:35 07:19:36 11° 307° (NW) 07:20:37 435.120 FM
PCSat 18 Apr 07:30:36 07:31:54 11° 22° (NNE) 07:33:12 145.825 MHz
JAS-2 18 Apr 07:36:51 07:41:43 35° 97° (E) 07:46:56 435.800 - 435.900 CW/SSB, 435.910 FM
KITSAT 1 18 Apr 07:44:49 07:50:12 19° 351° (N) 07:55:35 435.175 FM
Hamsat 18 Apr 07:47:36 07:51:53 58° 287° (WNW) 07:56:09 145.90 MHz
MaSat-1 18 Apr 08:05:34 08:08:11 30° 246° (WSW) 08:11:11 437.345 MHz
STRAND 1 18 Apr 08:07:45 08:11:22 19° 269° (W) 08:14:59 ?
Sapphire 18 Apr 08:27:32 08:31:19 19° 35° (NE) 08:35:05 437.095 MHz 1200 baud AX-25 AFSK
SO-67 18 Apr 08:37:46 08:41:16 68° 284° (WNW) 08:44:45 435.3500 MHz FM
AO-7 18 Apr 08:44:33 08:48:52 15° 320° (NW) 08:53:11 29.400 - 29.500 MHz
RS-15 18 Apr 08:57:28 09:08:39 66° 313° (NW) 09:19:34 29.354 - 29.394 USB, Beacon 29.352 USB
HO-68 18 Apr 09:06:08 09:11:33 23° 91° (E) 09:16:56 435.675 MHz FM
PCSat 18 Apr 09:12:07 09:17:04 34° 46° (NE) 09:21:58 145.825 MHz
JAS-2 18 Apr 09:22:07 09:26:51 35° 293° (WNW) 09:31:55 435.800 - 435.900 CW/SSB, 435.910 FM
AO-40 18 Apr 09:35:00 10:27:26 13° 231° (SW) 11:41:55 Beacon 2401.320
KITSAT 1 18 Apr 09:42:58 09:49:06 23° 21° (NNE) 09:55:11 435.175 FM
Sapphire 18 Apr 10:10:11 10:15:39 79° 57° (ENE) 10:21:04 437.095 MHz 1200 baud AX-25 AFSK
FUNcube-1 18 Apr 10:41:06 10:44:02 18° 92° (E) 10:46:58 145.950 - 145.970 MHz USB
Saudisat 1A 18 Apr 10:45:27 10:47:47 14° 110° (ESE) 10:50:07 436.775 MHz
HO-68 18 Apr 10:52:46 10:59:58 77° 290° (WNW) 11:07:08 435.675 MHz FM
Oscar 11 18 Apr 10:54:14 10:58:37 74° 102° (ESE) 11:02:58 145.825 FM, Beacon 2401.500 USB
PCSat 18 Apr 10:55:28 11:00:37 45° 246° (WSW) 11:05:45 145.825 MHz
RS-15 18 Apr 11:14:00 11:23:31 31° 344° (NNW) 11:32:58 29.354 - 29.394 USB, Beacon 29.352 USB
KITSAT 1 18 Apr 11:38:30 11:46:29 56° 48° (NE) 11:54:23 435.175 FM
Sapphire 18 Apr 11:55:03 11:58:24 17° 255° (WSW) 12:01:44 437.095 MHz 1200 baud AX-25 AFSK
FUNcube-1 18 Apr 12:16:38 12:20:41 46° 289° (WNW) 12:24:48 145.950 - 145.970 MHz USB
Saudisat 1A 18 Apr 12:22:20 12:26:48 77° 307° (NW) 12:31:18 436.775 MHz
Oscar 11 18 Apr 12:32:05 12:34:15 14° 300° (WNW) 12:36:24 145.825 FM, Beacon 2401.500 USB
HO-68 18 Apr 12:41:59 12:46:34 19° 310° (NW) 12:51:10 435.675 MHz FM
AO-27 18 Apr 12:49:08 12:52:35 18° 59° (ENE) 12:56:02 436.795 MHz FM
ITAMSAT 1 18 Apr 12:59:39 13:03:31 22° 61° (ENE) 13:07:23 435.822 SSB
Oscar 19 18 Apr 13:06:09 13:10:57 41° 68° (ENE) 13:15:46 437.125 CW, 437.150 USB
Oscar 16 18 Apr 13:14:00 13:18:57 51° 70° (ENE) 13:23:58 437.025 USB, Beacon 2401.1428
AO-Echo 18 Apr 13:18:53 13:23:04 25° 63° (ENE) 13:27:11 ?
RS-15 18 Apr 13:30:30 13:40:04 32° 19° (NNE) 13:49:39 29.354 - 29.394 USB, Beacon 29.352 USB
KITSAT 1 18 Apr 13:34:16 13:41:40 41° 249° (WSW) 13:49:02 435.175 FM
Uribyol 2 18 Apr 13:46:56 13:51:57 55° 70° (ENE) 13:57:00 436.500 FM
Saudisat 1A 18 Apr 14:04:16 14:07:09 17° 328° (NNW) 14:10:02 436.775 MHz
AO-7 18 Apr 14:10:23 14:15:27 18° 43° (NE) 14:20:31 29.400 - 29.500 MHz
Gurwin Techsat 1B 18 Apr 14:12:40 14:17:16 31° 64° (ENE) 14:21:52 435.225 FM
OPAL 18 Apr 14:23:32 14:24:07 10° 88° (E) 14:24:43 ?
AO-27 18 Apr 14:26:22 14:31:33 72° 257° (WSW) 14:36:45 436.795 MHz FM
ITAMSAT 1 18 Apr 14:37:31 14:42:37 58° 259° (W) 14:47:45 435.822 SSB
Oscar 19 18 Apr 14:46:01 14:50:25 28° 266° (W) 14:54:51 437.125 CW, 437.150 USB
Oscar 16 18 Apr 14:54:38 14:58:36 23° 268° (W) 15:02:38 437.025 USB, Beacon 2401.1428
AO-Echo 18 Apr 14:56:29 15:01:34 50° 261° (W) 15:06:34 ?
TMSAT-1 18 Apr 15:00:55 15:06:05 56° 71° (ENE) 15:11:16 436.925 FM
JAS-1B 18 Apr 15:01:13 15:08:25 40° 65° (ENE) 15:14:33 435.800 - 435.900 CW/SSB
Uosat F 18 Apr 15:14:36 15:18:56 30° 65° (ENE) 15:23:18 435.120 FM
Uribyol 2 18 Apr 15:27:55 15:31:46 21° 268° (W) 15:35:39 436.500 FM
RS-15 18 Apr 15:43:46 15:54:43 71° 49° (NE) 16:05:52 29.354 - 29.394 USB, Beacon 29.352 USB
Gurwin Techsat 1B 18 Apr 15:52:08 15:57:06 40° 263° (W) 16:02:07 435.225 FM
AO-7 18 Apr 15:58:35 16:06:43 65° 65° (ENE) 16:14:53 29.400 - 29.500 MHz
OPAL 18 Apr 15:58:36 16:03:50 76° 106° (ESE) 16:09:03 ?
SO-50 18 Apr 16:25:10 16:29:37 68° 123° (ESE) 16:34:07 436.795 FM
ISS 18 Apr 16:37:39 16:40:56 58° 147° (SSE) 16:44:15 145.800 FM
TMSAT-1 18 Apr 16:42:23 16:46:22 21° 268° (W) 16:50:22 436.925 FM
